CAPE
1188 987 998 1394 1148 1383 1364 1534 1955 2330 2175 2202 1989 1807 1850 1804 1764 1966 1855 2097 2570 1814
1198 1139 1085 1197 1385 1202 1531 1285 1884 2004 2276 2182 2197 2126 2041 1652 2325 2459 2237 2176 2189 2086
717 863 1119 1268 1434 1405 1517 1746 1635 2067 2193 2310 2321 2252 2245 1879 1942 2190 2085 1897 2322 2322
771 658 859 973 1252 1623 1808 1980 2034 2121 2128 2261 2334 2412 2477 2355 2104 2237 2338 2202 2305 2313
810 756 663 808 922 1176 1651 1819 2073 2195 2270 2295 2328 2403 2446 2350 1953 2195 2026 2054 2266 2136
410 726 793 901 901 988 1151 1563 1573 1919 2180 2326 2351 2409 2450 2519 2428 2393 2251 1982 2112 2141
261 262 658 1216 1253 1024 1070 1329 1410 1658 1878 2099 2397 2464 2435 2422 2517 2539 2387 2291 2167 2152
809 477 325 876 1336 1106 1098 1070 1172 1341 1473 1708 1750 1751 2190 2360 2491 2538 2444 2348 2334 2225
965 1067 1066 1175 1274 1270 1090 1079 1124 1026 1372 1408 1161 674 744 1568 2187 2383 2422 2498 2496 2426
1092 1067 1230 980 1022 1119 1268 1146 1169 1027 1024 1482 1708 819 213 402 1499 2041 2381 2521 2544 2393
854 901 1082 1116 1062 1215 912 1086 1043 984 1178 1311 1256 578 56 2 1304 2112 2315 2414 2356 2566
697 1157 1049 1124 1196 1184 977 845 799 841 984 1226 1383 234 1 0 936 1132 2172 2382 2290 2570
89 313 1225 1282 1370 1359 1378 1118 960 839 860 552 1087 551 0 0 378 994 861 1582 2053 1231
18 20 44 1022 1748 1531 1693 1658 1578 1492 1392 1253 964 810 0 0 402 625 951 1012 1007 940
CIN
-37 -13 -10 -19 -18 -11 -13 -13 -15 -12 -9 -12 -23 -22 -20 -9 -7 -12 -10 -12 -9 -9
-66 -37 -23 -25 -32 -22 -25 -19 -28 -18 -12 -13 -17 -17 -16 -6 -8 -8 -7 -4 -12 -10
-99 -79 -47 -37 -26 -29 -29 -36 -34 -19 -18 -9 -12 -16 -18 -11 -10 -8 -3 -2 -5 -9
-111 -105 -69 -58 -46 -28 -26 -33 -38 -35 -25 -21 -13 -16 -11 -10 -6 -8 -2 -3 -3 -4
-115 -127 -102 -90 -76 -54 -32 -30 -33 -37 -30 -23 -19 -18 -19 -16 -13 -9 -11 -7 -4 -5
-171 -124 -103 -90 -97 -91 -68 -37 -30 -35 -34 -26 -21 -20 -21 -18 -10 -9 -12 -12 -7 -5
-203 -207 -115 -85 -87 -91 -90 -57 -47 -41 -38 -31 -25 -28 -26 -25 -25 -17 -13 -14 -13 -9
-161 -189 -190 -118 -86 -105 -101 -86 -60 -51 -48 -39 -27 -22 -33 -32 -27 -28 -25 -22 -23 -20
-89 -85 -100 -90 -96 -99 -113 -103 -91 -72 -43 -41 -38 -59 -105 -62 -25 -29 -31 -25 -25 -27
-57 -75 -69 -95 -83 -93 -104 -112 -99 -94 -75 -46 -34 -101 -232 -251 -32 -24 -24 -25 -23 -18
-69 -82 -56 -47 -56 -68 -109 -95 -118 -122 -91 -74 -72 -171 -398 -199 -67 -8 -16 -22 -24 -20
-67 -32 -41 -51 -43 -41 -61 -99 -123 -129 -122 -91 -94 -287 -32 -0 -77 -41 -9 -11 -29 -17
-212 -146 -13 -0 -6 -5 -6 -42 -73 -106 -129 -204 -127 -239 -0 -0 -157 -44 -84 -62 -34 -143
-0 -308 -312 -17 -0 -0 -0 -2 -18 -43 -68 -104 -159 -197 -0 -0 -220 -137 -88 -98 -121 -162
Wind_Speed
13 9 9 10 8 7 7 7 7 8 7 6 5 5 4 4 5 4 3 4 3 1
13 13 11 10 9 7 7 6 8 9 9 8 7 7 6 5 5 4 4 4 4 4
14 14 12 10 11 10 8 8 8 9 9 8 9 8 7 6 6 6 5 5 5 5
14 14 13 12 12 11 9 9 9 9 9 9 9 9 9 8 7 8 7 6 6 6
12 13 14 14 14 12 12 10 10 8 9 9 9 9 10 10 9 10 9 8 7 7
11 12 16 15 14 13 13 13 11 10 10 10 10 11 11 11 10 10 10 9 9 8
13 13 15 14 14 14 13 13 13 13 12 12 11 12 11 11 11 11 11 11 11 10
16 15 13 13 14 14 14 14 14 14 14 13 12 10 12 12 12 11 11 12 12 12
13 13 14 14 15 14 15 14 14 15 15 15 13 13 14 13 12 12 12 12 13 13
13 14 14 15 14 14 14 14 15 15 15 16 16 12 15 17 14 13 13 13 12 12
12 14 14 14 15 14 13 14 14 15 15 15 14 14 16 17 18 14 15 15 15 14
10 13 14 14 14 14 13 13 14 14 15 16 16 15 18 15 16 17 17 15 16 15
9 8 9 12 13 13 13 14 12 14 15 16 17 14 17 17 14 15 14 15 16 16
13 8 7 8 8 12 13 13 13 14 14 15 16 16 17 19 15 14 14 14 13 14
Wind_Direction
211 217 219 209 200 207 208 204 196 197 206 188 194 199 197 215 222 202 215 218 232 245
209 218 222 220 214 207 213 212 201 201 201 199 193 205 197 228 218 215 210 217 223 248
213 216 220 214 218 215 212 216 204 208 206 201 197 202 202 214 218 221 226 232 223 236
209 212 223 223 217 218 213 208 211 213 211 207 204 207 209 223 218 214 219 219 224 233
216 208 214 220 220 217 221 215 213 210 215 215 209 208 212 216 217 217 220 224 222 231
209 214 218 224 221 215 221 223 222 216 213 216 217 215 218 224 228 225 227 227 226 228
203 208 222 225 221 221 219 222 225 224 221 221 219 214 215 220 225 231 231 228 228 229
217 211 214 217 221 221 220 224 227 231 228 228 229 224 218 219 221 225 230 230 229 230
230 225 220 220 219 215 218 223 224 227 231 234 233 223 207 216 219 223 227 230 229 235
243 233 227 227 227 223 221 218 220 228 231 232 234 222 208 211 229 226 225 228 231 232
252 246 240 234 233 231 228 225 221 224 227 231 233 216 209 207 229 237 234 233 231 232
325 254 245 242 241 239 236 232 231 231 226 228 236 213 211 203 231 237 237 236 235 233
313 304 285 252 246 244 237 239 237 238 232 229 238 220 212 204 230 238 238 236 237 217
320 316 307 302 266 240 241 247 243 241 240 238 231 235 205 202 223 232 233 240 238 236